This is the latest recevied weather packets stored in our database for station/object WP3OF-3. If no packets are shown the sender has not sent any weather packets the latest 10 day(s).
| Time | Temp. | Humidity | Pressure | Rain* | Wind** | Luminosity | Snow |
|---|---|---|---|---|---|---|---|
| 1778086982 | 29.44° C | 73% | 1020.4 hPa | 0 mm | - | - | - |
| 1778086682 | 30° C | 74% | 1020.4 hPa | 0 mm | - | - | - |
| 1778086379 | 29.44° C | 73% | 1020.7 hPa | 0 mm | - | - | - |
| 1778086075 | 29.44° C | 72% | 1020.8 hPa | 0 mm | - | - | - |
| 1778085772 | 28.33° C | 74% | 1021 hPa | 0 mm | - | - | - |
| 1778085469 | 28.89° C | 73% | 1020.9 hPa | 0 mm | - | - | - |
| 1778085164 | 28.89° C | 73% | 1020.9 hPa | 0 mm | - | - | - |
| 1778084860 | 28.89° C | 72% | 1020.9 hPa | 0 mm | - | - | - |
| 1778084558 | 28.89° C | 72% | 1021.2 hPa | 0 mm | - | - | - |
| 1778084255 | 29.44° C | 71% | 1021.1 hPa | 0 mm | - | - | - |
| 1778083952 | 29.44° C | 72% | 1021.1 hPa | 0 mm | - | - | - |
| 1778083650 | 29.44° C | 72% | 1021.1 hPa | 0 mm | - | - | - |
| 1778083346 | 30° C | 70% | 1021.2 hPa | 0 mm | - | - | - |
| 1778083046 | 30° C | 70% | 1021.1 hPa | 0 mm | - | - | - |
| 1778082742 | 31.11° C | 67% | 1021.1 hPa | 0 mm | - | - | - |
| 1778081609 | 30° C | 66% | 1021.4 hPa | 0 mm | - | - | - |
| 1778081306 | 29.44° C | 67% | 1021.3 hPa | 0 mm | - | - | - |
| 1778081003 | 30.56° C | 66% | 1021.4 hPa | 0 mm | - | - | - |
| 1778080702 | 30° C | 64% | 1021.7 hPa | 0 mm | - | - | - |
| 1778080398 | 30° C | 65% | 1021.4 hPa | 0 mm | - | - | - |
| 1778080095 | 29.44° C | 64% | 1021.4 hPa | 0 mm | - | - | - |
| 1778079792 | 28.89° C | 64% | 1021.9 hPa | 0 mm | - | - | - |
| 1778079489 | 29.44° C | 63% | 1021.6 hPa | 0 mm | - | - | - |
| 1778079185 | 30° C | 65% | 1021.8 hPa | 0 mm | - | - | - |
| 1778078883 | 29.44° C | 63% | 1021.6 hPa | 0 mm | - | - | - |
* Rain latest hour (hover to see other rain measurements)
** Current wind speed in m/s (hover to see current wind gust speed)